Zurück zum Katalog

SITRO-AIS-14

AktivKommunikationSSO
NORAD 61752·PAYLOAD·🇷🇺 Russia
Dieser Satellitenname wurde noch nicht durch offizielle Quellen bestätigt.

Gestartet Nov 4, 2024 von Vostochny Cosmodrome

Loading…

Nächste Überflüge (nächste 24 Stunden)

TLE

AktuellSource: Space-Track

Epoche: Sep 14, 2026, 20:07 UTC

1 61752U 24199T   26257.83848554  .00002158  00000-0  18697-3 0  9993
2 61752  97.3206  91.6750 0007822 113.5407 246.6639 14.98047421148546

Verfolge SITRO-AIS-14 in Echtzeit mit AllMySat

Download on the App Store